Starlink 11168

operational
NORAD ID: 60183 Int'l Des: 2024-124 Owner: SPXS Country: US Constellation: starlink
LEOCIRCULAR

Starlink 11168について

説明を読み込み中...

リアルタイム位置

3D地球を読み込み中...

次回通過

高度履歴

Altitude vs Time

uPlot chart will show altitude changes over time

軌道要素

1 60183U 24124A 25257.44310464 .00000941 00000-0 12620-4 0 9997
2 60183 53.1596 310.0110 0001082 77.3586 282.7553 15.69710859 70046
Epoch: Sep 14, 2025 • Age: 31 hours

現在のステータス

高度 361.8 km
速度 7.70 km/s
衛星直下点 35.31°N, 79.76°E
打ち上げ日 Jul 3, 2024
運用期間 1.2 years
タイプ internet

技術仕様

分類 Payload
質量 960.00 kg
乾燥質量 910.00 kg
総質量 960.00 kg
長さ 0.30 m
直径 4.10 m
スパン 29.00 m
形状 Box + pan
製造者 SPXS
バスタイプ Starlink V2MD
フェーズステータス In Orbit
所有者/国 SPXS/US

大規模コンステレーション

Loading constellations...